Voltar ao catálogo

THORAD DELTA 1 DEB

AtivoSSO
NORAD 8555·DEBRIS·🇺🇸 United States

Lançado Nov 15, 1974 de Vandenberg Space Force Base

Loading…

Próximas Passagens (próximas 24 horas)

TLE

AtualizadoSource: Space-Track

Época: Sep 14, 2026, 13:34 UTC

1 08555U 74089CS  26257.56592435  .00000764  00000-0  48360-2 0  9992
2 08555 101.4124  11.2760 0067737 216.7725 153.8724 12.56468571364654

Acompanhe THORAD DELTA 1 DEB em tempo real com AllMySat

Download on the App Store